CZ-6A DEB, 54542

Orbit data source: Space-Track

CZ-6A DEB, 54542 is space debris in SSO originally from a launch on Fri, 11 Nov 2022 UTC launched from the Taiyaun Space Center, China (TSC). Debris objects in space refer to the collection of defunct objects orbiting the Earth. Examples of debris include non-operational satellites, rocket bodies, and fragments generated from explosions, collisions, or faulty payload assembly.

Loading next visibility...
Identifier
54542, 2022-151KS
Orbit
SSO
Country
Flag of CNCN / PRC
Related business
Manufacturer
SAST
Mission
Spacecraft
Bus & Motor
Unknown
Mass
Unknown
Launch date (UTC)
2022-11-11 (4 years ago)
Launch vehicle
Unknown
Launch site
Taiyaun Space Center, China (TSC)
Object type
Payload
Rocket body
Debris
Shape & HBR
Unknown shape, 0.1 m
Radar Cross Section
Medium (>0.1 m² and <1 m²)

Expand to show TLE details & history
Last TLE update: 2 days ago

TLE from 2 days ago
0 CZ-6A DEB
1 54542U 22151KS  26171.43632887  .00000357  00000-0  21359-3 0  9997
2 54542  98.8276 176.1626 0034412 309.9446  49.8704 14.13027040185503
Epoch: 2026-06-20T10:28Z
TLE epoch observation values (Epoch: 2026-06-20T10:28:18.814Z)
Latitude
-0.00006°
Longitude
110.43324°
Altitude
835.951 km
Speed
7.443 km/s
True Right ascension
11h 44m 39s
True Declination
0° 00' 00"
Sunlit
Object was in daylight at epoch
Visualization orbit readout
Latitude
Unknown
Longitude
Unknown
Altitude
Unknown
Speed
Unknown
Apparent Right ascension
Unknown
Apparent Declination
Unknown
Sunlit
N/A
Visualization observer readout
Local Sidereal Time
21:25:35
Azimuth
Unknown
Elevation
Unknown
Doppler factor
Unknown
Orbital elements
Apogee altitude
871.066 km
Perigee altitude
821.345 km
Semi-major axis
7,224.342 km
Eccentricity
0.00344
Inclination
98.8276°
RAAN
176.1626°
Arg. of periapsis
309.9446°
True anomaly
50.17274°
Mean anomaly
49.8704°
Eccentric anomaly
50.02149°
Mean motion
3.53464 °/min
Orbital period
101.85 mins
BSTAR
0.00021359
Loading maneuver chart data...
Computing Atmospheric mass density...
Loading historical data...
Loading historical data...
Loading historical data...
Loading historical data...
Loading historical data...
Loading historical data...
Loading historical data...

Documentation

Showing up to 5 results
|